Time,TemperatureF,DewpointF,PressureIn,WindDirection,WindDirectionDegrees,WindSpeedMPH,WindSpeedGustMPH,Humidity,HourlyPrecipIn,Conditions,Clouds,dailyrainin,SolarRadiationWatts/m^2,SoftwareType,DateUTC
2013-02-15 00:01:00,14.1,4.5,30.11,NNW,327,5.0,7.0,65,0.00,,CLR,0.00,0.00,VWS V14.01,2013-02-15 06:01:00,
2013-02-15 00:06:00,14.0,4.8,30.11,NNW,328,2.0,9.0,66,0.00,,CLR,0.00,0.00,VWS V14.01,2013-02-15 06:06:00,
2013-02-15 00:11:00,13.7,4.5,30.11,NNW,331,3.0,9.0,66,0.00,,CLR,0.00,0.00,VWS V14.01,2013-02-15 06:11:00,
2013-02-15 00:16:00,13.6,4.4,30.11,NW,315,3.0,9.0,66,0.00,,CLR,0.00,0.00,VWS V14.01,2013-02-15 06:16:00,
2013-02-15 00:21:00,13.5,4.3,30.11,NW,313,2.0,9.0,66,0.00,,CLR,0.00,0.00,VWS V14.01,2013-02-15 06:21:00,
2013-02-15 00:26:00,13.3,4.1,30.11,NW,324,2.0,9.0,66,0.00,,CLR,0.00,0.00,VWS V14.01,2013-02-15 06:26:00,
2013-02-15 00:31:00,13.2,4.0,30.11,NW,314,3.0,6.0,66,0.00,,CLR,0.00,0.00,VWS V14.01,2013-02-15 06:31:00,
2013-02-15 00:36:00,13.1,4.2,30.11,NW,306,5.0,6.0,67,0.00,,CLR,0.00,0.00,VWS V14.01,2013-02-15 06:36:00,
2013-02-15 00:41:00,13.0,4.1,30.11,NW,320,2.0,7.0,67,0.00,,CLR,0.00,0.00,VWS V14.01,2013-02-15 06:41:00,
2013-02-15 00:46:00,12.9,3.7,30.11,NW,310,6.0,7.0,66,0.00,,CLR,0.00,0.00,VWS V14.01,2013-02-15 06:46:00,
2013-02-15 00:51:00,12.8,3.9,30.11,NW,323,2.0,8.0,67,0.00,,CLR,0.00,0.00,VWS V14.01,2013-02-15 06:51:00,
2013-02-15 00:56:00,12.8,3.9,30.11,NW,316,4.0,8.0,67,0.00,,CLR,0.00,0.00,VWS V14.01,2013-02-15 06:56:00,
2013-02-15 01:01:00,12.7,3.8,30.11,NW,315,4.0,9.0,67,0.00,,CLR,0.00,0.00,VWS V14.01,2013-02-15 07:01:00,
2013-02-15 01:06:00,12.7,3.8,30.11,NW,319,2.0,9.0,67,0.00,,CLR,0.00,0.00,VWS V14.01,2013-02-15 07:06:00,
2013-02-15 01:11:00,12.6,4.1,30.12,NW,311,3.0,9.0,68,0.00,,CLR,0.00,0.00,VWS V14.01,2013-02-15 07:11:00,
2013-02-15 01:16:00,12.5,4.0,30.12,NW,311,1.0,9.0,68,0.00,,CLR,0.00,0.00,VWS V14.01,2013-02-15 07:16:00,
2013-02-15 01:21:00,12.5,4.0,30.12,NW,319,2.0,9.0,68,0.00,,CLR,0.00,0.00,VWS V14.01,2013-02-15 07:21:00,
2013-02-15 01:26:00,12.3,3.8,30.12,NNW,327,1.0,9.0,68,0.00,,CLR,0.00,0.00,VWS V14.01,2013-02-15 07:26:00,
2013-02-15 01:31:00,12.2,4.0,30.12,NNW,327,1.0,2.0,69,0.00,,CLR,0.00,0.00,VWS V14.01,2013-02-15 07:31:00,
2013-02-15 01:36:00,12.1,3.9,30.12,NW,313,1.0,5.0,69,0.00,,CLR,0.00,0.00,VWS V14.01,2013-02-15 07:36:00,
2013-02-15 01:41:00,12.1,3.9,30.12,NW,322,3.0,5.0,69,0.00,,CLR,0.00,0.00,VWS V14.01,2013-02-15 07:41:00,
2013-02-15 01:46:00,12.1,3.9,30.12,NW,322,2.0,5.0,69,0.00,,CLR,0.00,0.00,VWS V14.01,2013-02-15 07:46:00,
2013-02-15 01:51:00,12.0,3.8,30.12,NW,313,1.0,5.0,69,0.00,,CLR,0.00,0.00,VWS V14.01,2013-02-15 07:51:00,
2013-02-15 01:56:00,11.7,3.5,30.12,NW,313,1.0,5.0,69,0.00,,CLR,0.00,0.00,VWS V14.01,2013-02-15 07:56:00,
2013-02-15 02:01:00,11.4,3.2,30.12,NW,313,3.0,3.0,69,0.00,,CLR,0.00,0.00,VWS V14.01,2013-02-15 08:01:00,
2013-02-15 02:06:00,11.2,3.3,30.12,NW,313,2.0,3.0,70,0.00,,CLR,0.00,0.00,VWS V14.01,2013-02-15 08:06:00,
2013-02-15 02:11:00,10.8,3.3,30.12,NW,313,1.0,3.0,71,0.00,,CLR,0.00,0.00,VWS V14.01,2013-02-15 08:11:00,
2013-02-15 02:16:00,10.5,3.0,30.12,NW,313,1.0,3.0,71,0.00,,CLR,0.00,0.00,VWS V14.01,2013-02-15 08:16:00,
2013-02-15 02:21:00,10.2,3.0,30.12,NW,313,1.0,3.0,72,0.00,,CLR,0.00,0.00,VWS V14.01,2013-02-15 08:21:00,
2013-02-15 02:26:00,10.0,3.1,30.12,NW,313,2.0,3.0,73,0.00,,CLR,0.00,0.00,VWS V14.01,2013-02-15 08:26:00,
2013-02-15 02:31:00,10.0,3.1,30.13,NW,313,1.0,3.0,73,0.00,,CLR,0.00,0.00,VWS V14.01,2013-02-15 08:31:00,
2013-02-15 02:36:00,9.9,3.0,30.13,WNW,297,2.0,4.0,73,0.00,,CLR,0.00,0.00,VWS V14.01,2013-02-15 08:36:00,
2013-02-15 02:41:00,9.6,2.7,30.13,WNW,297,2.0,4.0,73,0.00,,CLR,0.00,0.00,VWS V14.01,2013-02-15 08:41:00,
2013-02-15 02:46:00,9.4,2.5,30.13,WNW,297,3.0,4.0,73,0.00,,CLR,0.00,0.00,VWS V14.01,2013-02-15 08:46:00,
2013-02-15 02:51:00,9.3,2.7,30.13,WNW,301,2.0,6.0,74,0.00,,CLR,0.00,0.00,VWS V14.01,2013-02-15 08:51:00,
2013-02-15 02:56:00,9.4,2.5,30.13,WNW,300,3.0,6.0,73,0.00,,CLR,0.00,0.00,VWS V14.01,2013-02-15 08:56:00,
2013-02-15 03:01:00,9.4,2.5,30.13,NW,306,3.0,6.0,73,0.00,,CLR,0.00,0.00,VWS V14.01,2013-02-15 09:01:00,
2013-02-15 03:06:00,9.4,2.5,30.13,NW,306,3.0,6.0,73,0.00,,CLR,0.00,0.00,VWS V14.01,2013-02-15 09:06:00,
2013-02-15 03:11:00,9.4,2.5,30.14,NW,306,3.0,6.0,73,0.00,,CLR,0.00,0.00,VWS V14.01,2013-02-15 09:11:00,
2013-02-15 03:16:00,9.5,2.6,30.13,NW,320,3.0,6.0,73,0.00,,CLR,0.00,0.00,VWS V14.01,2013-02-15 09:16:00,
2013-02-15 03:21:00,9.5,2.3,30.14,WNW,302,4.0,6.0,72,0.00,,CLR,0.00,0.00,VWS V14.01,2013-02-15 09:21:00,
2013-02-15 03:26:00,9.2,2.3,30.14,WNW,296,3.0,6.0,73,0.00,,CLR,0.00,0.00,VWS V14.01,2013-02-15 09:26:00,
2013-02-15 03:31:00,9.1,2.2,30.14,WNW,293,2.0,3.0,73,0.00,,CLR,0.00,0.00,VWS V14.01,2013-02-15 09:31:00,
2013-02-15 03:36:00,8.9,2.0,30.14,WNW,293,1.0,4.0,73,0.00,,CLR,0.00,0.00,VWS V14.01,2013-02-15 09:36:00,
2013-02-15 03:41:00,9.0,2.4,30.14,WNW,293,3.0,4.0,74,0.00,,CLR,0.00,0.00,VWS V14.01,2013-02-15 09:41:00,
2013-02-15 03:46:00,9.0,2.4,30.14,WNW,293,2.0,4.0,74,0.00,,CLR,0.00,0.00,VWS V14.01,2013-02-15 09:46:00,
2013-02-15 03:51:00,9.0,2.1,30.14,WNW,293,2.0,4.0,73,0.00,,CLR,0.00,0.00,VWS V14.01,2013-02-15 09:51:00,
2013-02-15 03:56:00,9.0,2.1,30.14,WNW,293,1.0,4.0,73,0.00,,CLR,0.00,0.00,VWS V14.01,2013-02-15 09:56:00,
2013-02-15 04:01:00,9.1,2.2,30.15,WNW,298,3.0,5.0,73,0.00,,OVC095,0.00,0.00,VWS V14.01,2013-02-15 10:01:00,
2013-02-15 04:06:00,9.0,2.1,30.15,WNW,298,2.0,5.0,73,0.00,,OVC095,0.00,0.00,VWS V14.01,2013-02-15 10:06:00,
2013-02-15 04:11:00,8.9,2.0,30.15,WNW,298,2.0,5.0,73,0.00,,OVC095,0.00,0.00,VWS V14.01,2013-02-15 10:11:00,
2013-02-15 04:16:00,8.8,1.9,30.15,WNW,298,2.0,5.0,73,0.00,,OVC095,0.00,0.00,VWS V14.01,2013-02-15 10:16:00,
2013-02-15 04:21:00,8.9,2.3,30.15,WNW,298,1.0,5.0,74,0.00,,OVC095,0.00,0.00,VWS V14.01,2013-02-15 10:21:00,
2013-02-15 04:26:00,9.0,2.4,30.16,WNW,298,1.0,5.0,74,0.00,,OVC095,0.00,0.00,VWS V14.01,2013-02-15 10:26:00,
2013-02-15 04:31:00,9.0,2.4,30.16,WNW,298,2.0,3.0,74,0.00,,OVC095,0.00,0.00,VWS V14.01,2013-02-15 10:31:00,
2013-02-15 04:36:00,9.1,2.5,30.16,WNW,298,4.0,4.0,74,0.00,,OVC095,0.00,0.00,VWS V14.01,2013-02-15 10:36:00,
2013-02-15 04:41:00,9.2,2.3,30.16,WNW,292,2.0,5.0,73,0.00,,OVC095,0.00,0.00,VWS V14.01,2013-02-15 10:41:00,
2013-02-15 04:46:00,9.1,2.2,30.16,West,279,2.0,6.0,73,0.00,,OVC095,0.00,0.00,VWS V14.01,2013-02-15 10:46:00,
2013-02-15 04:51:00,9.2,2.3,30.16,WNW,301,4.0,7.0,73,0.00,,OVC095,0.00,0.00,VWS V14.01,2013-02-15 10:51:00,
2013-02-15 04:56:00,9.3,2.7,30.16,NW,309,2.0,7.0,74,0.00,,OVC095,0.00,0.00,VWS V14.01,2013-02-15 10:56:00,
2013-02-15 05:01:00,9.3,2.4,30.16,NW,319,3.0,7.0,73,0.00,,OVC090,0.00,0.00,VWS V14.01,2013-02-15 11:01:00,
2013-02-15 05:07:00,9.3,2.7,30.17,NW,317,5.0,7.0,74,0.00,,OVC090,0.00,0.00,VWS V14.01,2013-02-15 11:07:00,
2013-02-15 05:12:00,9.2,2.6,30.17,WNW,302,2.0,7.0,74,0.00,,OVC090,0.00,0.00,VWS V14.01,2013-02-15 11:12:00,
2013-02-15 05:17:00,9.2,2.6,30.17,NW,311,4.0,7.0,74,0.00,,OVC090,0.00,0.00,VWS V14.01,2013-02-15 11:17:00,
2013-02-15 05:22:00,8.9,2.3,30.17,WNW,298,6.0,8.0,74,0.00,,OVC090,0.00,0.00,VWS V14.01,2013-02-15 11:22:00,
2013-02-15 05:27:00,8.8,2.2,30.17,WNW,303,4.0,8.0,74,0.00,,OVC090,0.00,0.00,VWS V14.01,2013-02-15 11:27:00,
2013-02-15 05:32:00,8.7,2.4,30.17,NW,304,5.0,5.0,75,0.00,,OVC090,0.00,0.00,VWS V14.01,2013-02-15 11:32:00,
2013-02-15 05:37:00,8.8,2.5,30.17,NW,314,6.0,6.0,75,0.00,,OVC090,0.00,0.00,VWS V14.01,2013-02-15 11:37:00,
2013-02-15 05:42:00,8.8,2.5,30.17,NW,321,3.0,6.0,75,0.00,,OVC090,0.00,0.00,VWS V14.01,2013-02-15 11:42:00,
2013-02-15 05:47:00,8.9,2.6,30.17,NW,313,5.0,7.0,75,0.00,,OVC090,0.00,0.00,VWS V14.01,2013-02-15 11:47:00,
2013-02-15 05:52:00,8.9,2.6,30.18,WNW,291,2.0,7.0,75,0.00,,OVC090,0.00,0.00,VWS V14.01,2013-02-15 11:52:00,
2013-02-15 05:57:00,9.0,2.7,30.17,NW,314,2.0,7.0,75,0.00,,OVC090,0.00,0.00,VWS V14.01,2013-02-15 11:57:00,
2013-02-15 06:02:00,9.0,2.7,30.18,WNW,294,3.0,4.0,75,0.00,,OVC085,0.00,0.00,VWS V14.01,2013-02-15 12:02:00,
2013-02-15 06:07:00,9.1,3.1,30.18,NW,323,5.0,7.0,76,0.00,,OVC085,0.00,0.00,VWS V14.01,2013-02-15 12:07:00,
2013-02-15 06:12:00,9.2,3.2,30.18,NW,318,4.0,7.0,76,0.00,,OVC085,0.00,0.00,VWS V14.01,2013-02-15 12:12:00,
2013-02-15 06:17:00,9.4,3.4,30.18,NW,306,3.0,7.0,76,0.00,,OVC085,0.00,0.00,VWS V14.01,2013-02-15 12:17:00,
2013-02-15 06:22:00,9.4,3.4,30.18,NW,311,2.0,7.0,76,0.00,,OVC085,0.00,0.00,VWS V14.01,2013-02-15 12:22:00,
2013-02-15 06:27:00,9.4,3.4,30.18,NW,323,1.0,7.0,76,0.00,,OVC085,0.00,0.00,VWS V14.01,2013-02-15 12:27:00,
2013-02-15 06:32:00,9.4,3.4,30.18,NW,323,2.0,4.0,76,0.00,,OVC085,0.00,0.00,VWS V14.01,2013-02-15 12:32:00,
2013-02-15 06:37:00,9.2,3.2,30.18,NW,317,1.0,4.0,76,0.00,,OVC085,0.00,0.00,VWS V14.01,2013-02-15 12:37:00,
2013-02-15 06:42:00,9.1,3.1,30.19,NW,317,2.0,4.0,76,0.00,,OVC085,0.00,0.00,VWS V14.01,2013-02-15 12:42:00,
2013-02-15 06:47:00,9.0,3.0,30.19,WNW,288,3.0,4.0,76,0.00,,OVC085,0.00,0.00,VWS V14.01,2013-02-15 12:47:00,
2013-02-15 06:52:00,8.9,3.2,30.19,NW,307,4.0,5.0,77,0.00,,OVC085,0.00,0.00,VWS V14.01,2013-02-15 12:52:00,
2013-02-15 06:57:00,9.0,3.3,30.19,NW,311,2.0,5.0,77,0.00,,OVC085,0.00,0.00,VWS V14.01,2013-02-15 12:57:00,
2013-02-15 07:02:00,9.1,3.4,30.19,NW,315,3.0,5.0,77,0.00,,OVC060,0.00,0.00,VWS V14.01,2013-02-15 13:02:00,
2013-02-15 07:07:00,9.2,3.5,30.19,WNW,302,3.0,6.0,77,0.00,,OVC060,0.00,0.00,VWS V14.01,2013-02-15 13:07:00,
2013-02-15 07:12:00,9.3,3.6,30.19,NW,309,2.0,6.0,77,0.00,,OVC060,0.00,5.00,VWS V14.01,2013-02-15 13:12:00,
2013-02-15 07:17:00,9.4,3.7,30.19,NW,310,3.0,6.0,77,0.00,,OVC060,0.00,7.00,VWS V14.01,2013-02-15 13:17:00,
2013-02-15 07:22:00,9.5,3.8,30.20,NW,324,2.0,6.0,77,0.00,,OVC060,0.00,11.00,VWS V14.01,2013-02-15 13:22:00,
2013-02-15 07:27:00,9.6,3.8,30.20,NNW,327,3.0,8.0,77,0.00,,OVC060,0.00,16.00,VWS V14.01,2013-02-15 13:27:00,
2013-02-15 07:32:00,9.8,4.1,30.20,NW,306,7.0,7.0,77,0.00,,OVC060,0.00,21.00,VWS V14.01,2013-02-15 13:32:00,
2013-02-15 07:37:00,9.9,4.2,30.20,NNW,336,3.0,8.0,77,0.00,,OVC060,0.00,23.00,VWS V14.01,2013-02-15 13:37:00,
2013-02-15 07:42:00,10.0,4.2,30.20,NW,320,6.0,8.0,77,0.00,,OVC060,0.00,28.00,VWS V14.01,2013-02-15 13:42:00,
2013-02-15 07:47:00,10.0,4.2,30.20,NNW,327,2.0,8.0,77,0.00,,OVC060,0.00,33.00,VWS V14.01,2013-02-15 13:47:00,
2013-02-15 07:52:00,10.1,4.3,30.20,NW,310,3.0,9.0,77,0.00,,OVC060,0.00,40.00,VWS V14.01,2013-02-15 13:52:00,
2013-02-15 07:57:00,10.0,4.2,30.20,NW,306,6.0,9.0,77,0.00,,OVC060,0.00,46.00,VWS V14.01,2013-02-15 13:57:00,
2013-02-15 08:02:00,10.1,4.3,30.21,NW,304,5.0,7.0,77,0.00,,BKN055,0.00,49.00,VWS V14.01,2013-02-15 14:02:00,
2013-02-15 08:07:00,10.2,4.4,30.21,NW,304,6.0,8.0,77,0.00,,BKN055,0.00,49.00,VWS V14.01,2013-02-15 14:07:00,
2013-02-15 08:12:00,10.2,4.4,30.21,NW,316,6.0,8.0,77,0.00,,BKN055,0.00,60.00,VWS V14.01,2013-02-15 14:12:00,
2013-02-15 08:17:00,10.2,4.4,30.22,NW,315,4.0,8.0,77,0.00,,BKN055,0.00,54.00,VWS V14.01,2013-02-15 14:17:00,
2013-02-15 08:22:00,10.3,4.5,30.21,NNW,331,5.0,9.0,77,0.00,,BKN055,0.00,76.00,VWS V14.01,2013-02-15 14:22:00,
2013-02-15 08:27:00,10.5,4.4,30.21,WNW,289,5.0,9.0,76,0.00,,BKN055,0.00,111.00,VWS V14.01,2013-02-15 14:27:00,
2013-02-15 08:32:00,10.5,4.4,30.22,NW,318,5.0,9.0,76,0.00,,BKN055,0.00,49.00,VWS V14.01,2013-02-15 14:32:00,
2013-02-15 08:37:00,10.5,4.2,30.22,NW,311,6.0,9.0,75,0.00,,BKN055,0.00,121.00,VWS V14.01,2013-02-15 14:37:00,
2013-02-15 08:42:00,10.6,4.2,30.22,NW,306,10.0,11.0,75,0.00,,BKN055,0.00,141.00,VWS V14.01,2013-02-15 14:42:00,
2013-02-15 08:47:00,10.8,4.4,30.22,NW,313,5.0,13.0,75,0.00,,BKN055,0.00,165.00,VWS V14.01,2013-02-15 14:47:00,
2013-02-15 08:52:00,10.9,4.6,30.22,NW,321,9.0,15.0,75,0.00,,BKN055,0.00,165.00,VWS V14.01,2013-02-15 14:52:00,
2013-02-15 08:57:00,11.0,4.6,30.22,WNW,300,7.0,15.0,75,0.00,,BKN055,0.00,105.00,VWS V14.01,2013-02-15 14:57:00,
2013-02-15 09:02:00,11.1,4.7,30.23,West,276,6.0,10.0,75,0.00,,CLR,0.00,258.00,VWS V14.01,2013-02-15 15:02:00,
2013-02-15 09:07:00,11.1,4.4,30.23,NW,323,8.0,14.0,74,0.00,,CLR,0.00,246.00,VWS V14.01,2013-02-15 15:07:00,
2013-02-15 09:12:00,11.0,4.3,30.23,NW,313,8.0,14.0,74,0.00,,CLR,0.00,229.00,VWS V14.01,2013-02-15 15:12:00,
2013-02-15 09:17:00,10.9,4.2,30.23,West,277,7.0,15.0,74,0.00,,CLR,0.00,211.00,VWS V14.01,2013-02-15 15:17:00,
2013-02-15 09:22:00,10.9,4.6,30.23,WNW,300,7.0,15.0,75,0.00,,CLR,0.00,204.00,VWS V14.01,2013-02-15 15:22:00,
2013-02-15 09:27:00,10.9,4.6,30.23,WNW,299,12.0,15.0,75,0.00,,CLR,0.00,174.00,VWS V14.01,2013-02-15 15:27:00,
2013-02-15 09:32:00,10.9,4.6,30.23,WNW,298,10.0,14.0,75,0.00,,CLR,0.00,269.00,VWS V14.01,2013-02-15 15:32:00,
2013-02-15 09:37:00,11.2,4.8,30.23,WNW,293,11.0,14.0,75,0.00,,CLR,0.00,302.00,VWS V14.01,2013-02-15 15:37:00,
2013-02-15 09:42:00,11.4,5.0,30.23,NNW,331,4.0,14.0,75,0.00,,CLR,0.00,218.00,VWS V14.01,2013-02-15 15:42:00,
2013-02-15 09:47:00,11.7,5.0,30.23,NNW,342,0.0,14.0,74,0.00,,CLR,0.00,188.00,VWS V14.01,2013-02-15 15:47:00,
2013-02-15 09:52:00,11.7,4.7,30.23,WNW,302,8.0,14.0,73,0.00,,CLR,0.00,220.00,VWS V14.01,2013-02-15 15:52:00,
2013-02-15 09:57:00,11.5,4.8,30.23,NNE,19,5.0,14.0,74,0.00,,CLR,0.00,325.00,VWS V14.01,2013-02-15 15:57:00,
2013-02-15 10:02:00,11.7,4.7,30.24,WNW,296,1.0,8.0,73,0.00,,CLR,0.00,183.00,VWS V14.01,2013-02-15 16:02:00,
2013-02-15 10:07:00,11.7,4.7,30.23,WNW,303,5.0,11.0,73,0.00,,CLR,0.00,278.00,VWS V14.01,2013-02-15 16:07:00,
2013-02-15 10:12:00,11.4,4.4,30.23,WNW,300,7.0,11.0,73,0.00,,CLR,0.00,132.00,VWS V14.01,2013-02-15 16:12:00,
2013-02-15 10:17:00,11.6,4.9,30.23,NW,322,5.0,11.0,74,0.00,,CLR,0.00,406.00,VWS V14.01,2013-02-15 16:17:00,
2013-02-15 10:22:00,12.2,5.2,30.23,NW,317,0.0,11.0,73,0.00,,CLR,0.00,202.00,VWS V14.01,2013-02-15 16:22:00,
2013-02-15 10:28:00,12.3,5.0,30.23,NW,305,5.0,11.0,72,0.00,,CLR,0.00,348.00,VWS V14.01,2013-02-15 16:28:00,
2013-02-15 10:33:00,12.4,5.1,30.23,NNW,336,6.0,8.0,72,0.00,,CLR,0.00,179.00,VWS V14.01,2013-02-15 16:33:00,
2013-02-15 10:38:00,12.6,5.3,30.23,NW,323,6.0,8.0,72,0.00,,CLR,0.00,113.00,VWS V14.01,2013-02-15 16:38:00,
2013-02-15 10:43:00,12.8,5.5,30.23,NW,309,2.0,8.0,72,0.00,,CLR,0.00,200.00,VWS V14.01,2013-02-15 16:43:00,
2013-02-15 10:48:00,12.9,5.6,30.23,NNW,337,3.0,11.0,72,0.00,,CLR,0.00,125.00,VWS V14.01,2013-02-15 16:48:00,
2013-02-15 10:53:00,12.9,5.3,30.23,WNW,298,8.0,11.0,71,0.00,,CLR,0.00,211.00,VWS V14.01,2013-02-15 16:53:00,
2013-02-15 10:58:00,12.7,5.1,30.23,NNW,327,4.0,12.0,71,0.00,,CLR,0.00,179.00,VWS V14.01,2013-02-15 16:58:00,
2013-02-15 11:03:00,12.7,5.4,30.23,WNW,287,3.0,11.0,72,0.00,,CLR,0.00,130.00,VWS V14.01,2013-02-15 17:03:00,
2013-02-15 11:08:00,12.5,5.2,30.23,WSW,257,6.0,11.0,72,0.00,,CLR,0.00,211.00,VWS V14.01,2013-02-15 17:08:00,
2013-02-15 11:13:00,12.6,5.3,30.24,WNW,284,4.0,11.0,72,0.00,,CLR,0.00,243.00,VWS V14.01,2013-02-15 17:13:00,
2013-02-15 11:18:00,12.5,5.2,30.24,West,281,8.0,11.0,72,0.00,,CLR,0.00,258.00,VWS V14.01,2013-02-15 17:18:00,
2013-02-15 11:23:00,12.8,5.5,30.24,WNW,288,6.0,11.0,72,0.00,,CLR,0.00,285.00,VWS V14.01,2013-02-15 17:23:00,
2013-02-15 11:28:00,13.0,5.7,30.24,NW,304,6.0,12.0,72,0.00,,CLR,0.00,399.00,VWS V14.01,2013-02-15 17:28:00,
2013-02-15 11:33:00,13.6,6.0,30.24,NNW,332,6.0,8.0,71,0.00,,CLR,0.00,531.00,VWS V14.01,2013-02-15 17:33:00,
2013-02-15 11:38:00,14.0,6.0,30.24,WNW,284,7.0,10.0,70,0.00,,CLR,0.00,501.00,VWS V14.01,2013-02-15 17:38:00,
2013-02-15 11:43:00,14.1,6.1,30.24,WNW,295,5.0,10.0,70,0.00,,CLR,0.00,512.00,VWS V14.01,2013-02-15 17:43:00,
2013-02-15 11:48:00,14.3,6.3,30.23,WNW,298,5.0,10.0,70,0.00,,CLR,0.00,598.00,VWS V14.01,2013-02-15 17:48:00,
2013-02-15 11:53:00,14.7,6.4,30.23,NW,312,6.0,10.0,69,0.00,,CLR,0.00,561.00,VWS V14.01,2013-02-15 17:53:00,
2013-02-15 11:58:00,14.8,6.2,30.23,NW,309,13.0,13.0,68,0.00,,CLR,0.00,527.00,VWS V14.01,2013-02-15 17:58:00,
2013-02-15 12:03:00,14.5,5.6,30.23,NW,321,3.0,12.0,67,0.00,,CLR,0.00,561.00,VWS V14.01,2013-02-15 18:03:00,
2013-02-15 12:08:00,14.8,6.2,30.23,North,349,5.0,13.0,68,0.00,,CLR,0.00,599.00,VWS V14.01,2013-02-15 18:08:00,
2013-02-15 12:13:00,14.9,5.9,30.23,WNW,302,10.0,13.0,67,0.00,,CLR,0.00,606.00,VWS V14.01,2013-02-15 18:13:00,
2013-02-15 12:18:00,14.8,5.8,30.23,WNW,287,9.0,13.0,67,0.00,,CLR,0.00,591.00,VWS V14.01,2013-02-15 18:18:00,
2013-02-15 12:23:00,14.8,6.2,30.23,West,279,6.0,14.0,68,0.00,,CLR,0.00,599.00,VWS V14.01,2013-02-15 18:23:00,
2013-02-15 12:28:00,14.9,6.3,30.23,WNW,296,9.0,14.0,68,0.00,,CLR,0.00,608.00,VWS V14.01,2013-02-15 18:28:00,
2013-02-15 12:33:00,15.1,6.1,30.23,WNW,283,10.0,16.0,67,0.00,,CLR,0.00,598.00,VWS V14.01,2013-02-15 18:33:00,
2013-02-15 12:38:00,15.0,5.7,30.22,NNW,332,8.0,16.0,66,0.00,,CLR,0.00,582.00,VWS V14.01,2013-02-15 18:38:00,
2013-02-15 12:43:00,15.4,5.8,30.22,NNW,331,4.0,16.0,65,0.00,,CLR,0.00,608.00,VWS V14.01,2013-02-15 18:43:00,
2013-02-15 12:48:00,15.7,6.4,30.22,NW,315,5.0,16.0,66,0.00,,CLR,0.00,599.00,VWS V14.01,2013-02-15 18:48:00,
2013-02-15 12:53:00,16.0,6.3,30.22,WNW,292,9.0,16.0,65,0.00,,CLR,0.00,591.00,VWS V14.01,2013-02-15 18:53:00,
2013-02-15 12:58:00,15.7,5.7,30.22,West,270,6.0,16.0,64,0.00,,CLR,0.00,603.00,VWS V14.01,2013-02-15 18:58:00,
2013-02-15 13:03:00,15.7,5.7,30.22,WNW,288,13.0,16.0,64,0.00,,CLR,0.00,589.00,VWS V14.01,2013-02-15 19:03:00,
2013-02-15 13:08:00,15.5,5.8,30.22,NNW,331,5.0,16.0,65,0.00,,CLR,0.00,594.00,VWS V14.01,2013-02-15 19:08:00,
2013-02-15 13:13:00,15.6,5.6,30.22,WNW,290,12.0,17.0,64,0.00,,CLR,0.00,589.00,VWS V14.01,2013-02-15 19:13:00,
2013-02-15 13:18:00,15.5,5.5,30.22,WNW,284,14.0,17.0,64,0.00,,CLR,0.00,555.00,VWS V14.01,2013-02-15 19:18:00,
2013-02-15 13:23:00,15.5,5.5,30.22,West,280,8.0,17.0,64,0.00,,CLR,0.00,582.00,VWS V14.01,2013-02-15 19:23:00,
2013-02-15 13:28:00,15.4,5.4,30.22,WNW,284,8.0,17.0,64,0.00,,CLR,0.00,559.00,VWS V14.01,2013-02-15 19:28:00,
2013-02-15 13:33:00,15.2,5.2,30.22,West,279,9.0,14.0,64,0.00,,CLR,0.00,554.00,VWS V14.01,2013-02-15 19:33:00,
2013-02-15 13:38:00,15.4,5.8,30.22,WNW,303,9.0,15.0,65,0.00,,CLR,0.00,555.00,VWS V14.01,2013-02-15 19:38:00,
2013-02-15 13:43:00,15.5,5.5,30.22,WSW,253,9.0,15.0,64,0.00,,CLR,0.00,552.00,VWS V14.01,2013-02-15 19:43:00,
2013-02-15 13:48:00,15.5,5.5,30.22,West,281,11.0,15.0,64,0.00,,CLR,0.00,547.00,VWS V14.01,2013-02-15 19:48:00,
2013-02-15 13:53:00,15.7,5.7,30.22,WNW,290,8.0,15.0,64,0.00,,CLR,0.00,533.00,VWS V14.01,2013-02-15 19:53:00,
2013-02-15 13:58:00,15.9,5.6,30.22,NW,321,9.0,15.0,63,0.00,,CLR,0.00,531.00,VWS V14.01,2013-02-15 19:58:00,
2013-02-15 14:03:00,16.2,5.8,30.22,NW,313,6.0,13.0,63,0.00,,CLR,0.00,524.00,VWS V14.01,2013-02-15 20:03:00,
2013-02-15 14:08:00,16.4,5.3,30.22,NW,313,10.0,13.0,61,0.00,,CLR,0.00,519.00,VWS V14.01,2013-02-15 20:08:00,
2013-02-15 14:13:00,16.6,5.5,30.22,NNW,336,2.0,13.0,61,0.00,,CLR,0.00,483.00,VWS V14.01,2013-02-15 20:13:00,
2013-02-15 14:18:00,16.8,4.6,30.22,North,360,2.0,14.0,58,0.00,,CLR,0.00,501.00,VWS V14.01,2013-02-15 20:18:00,
2013-02-15 14:23:00,16.4,5.0,30.22,West,274,8.0,17.0,60,0.00,,CLR,0.00,490.00,VWS V14.01,2013-02-15 20:23:00,
2013-02-15 14:28:00,16.5,5.1,30.22,WNW,299,13.0,17.0,60,0.00,,CLR,0.00,480.00,VWS V14.01,2013-02-15 20:28:00,
2013-02-15 14:33:00,16.3,5.2,30.22,NW,304,14.0,15.0,61,0.00,,CLR,0.00,471.00,VWS V14.01,2013-02-15 20:33:00,
2013-02-15 14:38:00,16.5,5.4,30.22,WNW,288,15.0,16.0,61,0.00,,CLR,0.00,461.00,VWS V14.01,2013-02-15 20:38:00,
2013-02-15 14:43:00,16.6,5.2,30.22,WNW,289,8.0,16.0,60,0.00,,CLR,0.00,452.00,VWS V14.01,2013-02-15 20:43:00,
2013-02-15 14:48:00,16.8,5.3,30.23,NW,323,5.0,16.0,60,0.00,,CLR,0.00,439.00,VWS V14.01,2013-02-15 20:48:00,
2013-02-15 14:53:00,17.1,4.9,30.23,WNW,297,11.0,16.0,58,0.00,,CLR,0.00,427.00,VWS V14.01,2013-02-15 20:53:00,
2013-02-15 14:58:00,16.5,4.3,30.23,WNW,288,6.0,16.0,58,0.00,,CLR,0.00,415.00,VWS V14.01,2013-02-15 20:58:00,
2013-02-15 15:03:00,16.6,4.8,30.23,WNW,301,11.0,14.0,59,0.00,,CLR,0.00,401.00,VWS V14.01,2013-02-15 21:03:00,
2013-02-15 15:08:00,16.6,4.0,30.24,WNW,303,9.0,15.0,57,0.00,,CLR,0.00,392.00,VWS V14.01,2013-02-15 21:08:00,
2013-02-15 15:13:00,16.5,3.9,30.24,WNW,292,10.0,16.0,57,0.00,,CLR,0.00,381.00,VWS V14.01,2013-02-15 21:13:00,
2013-02-15 15:18:00,16.7,4.1,30.24,NNW,333,8.0,16.0,57,0.00,,CLR,0.00,369.00,VWS V14.01,2013-02-15 21:18:00,
2013-02-15 15:23:00,16.9,3.9,30.24,NNW,327,6.0,17.0,56,0.00,,CLR,0.00,350.00,VWS V14.01,2013-02-15 21:23:00,
2013-02-15 15:28:00,17.0,4.0,30.24,NNW,329,7.0,17.0,56,0.00,,CLR,0.00,338.00,VWS V14.01,2013-02-15 21:28:00,
2013-02-15 15:33:00,17.0,4.0,30.24,WNW,288,9.0,13.0,56,0.00,,CLR,0.00,329.00,VWS V14.01,2013-02-15 21:33:00,
2013-02-15 15:38:00,16.7,4.5,30.24,WNW,282,10.0,14.0,58,0.00,,CLR,0.00,313.00,VWS V14.01,2013-02-15 21:38:00,
2013-02-15 15:43:00,16.5,4.7,30.24,WNW,294,8.0,14.0,59,0.00,,CLR,0.00,299.00,VWS V14.01,2013-02-15 21:43:00,
2013-02-15 15:48:00,16.4,4.6,30.24,West,277,9.0,15.0,59,0.00,,CLR,0.00,285.00,VWS V14.01,2013-02-15 21:48:00,
2013-02-15 15:53:00,16.3,4.1,30.24,WNW,292,9.0,15.0,58,0.00,,CLR,0.00,269.00,VWS V14.01,2013-02-15 21:53:00,
2013-02-15 15:58:00,16.5,3.9,30.24,NNW,331,8.0,16.0,57,0.00,,CLR,0.00,258.00,VWS V14.01,2013-02-15 21:58:00,
2013-02-15 16:03:00,16.8,4.2,30.24,NW,314,14.0,15.0,57,0.00,,CLR,0.00,246.00,VWS V14.01,2013-02-15 22:03:00,
2013-02-15 16:08:00,16.6,4.0,30.24,NW,306,4.0,15.0,57,0.00,,CLR,0.00,230.00,VWS V14.01,2013-02-15 22:08:00,
2013-02-15 16:13:00,16.4,3.8,30.24,WNW,288,9.0,17.0,57,0.00,,CLR,0.00,214.00,VWS V14.01,2013-02-15 22:13:00,
2013-02-15 16:18:00,16.5,3.9,30.24,NW,304,6.0,17.0,57,0.00,,CLR,0.00,199.00,VWS V14.01,2013-02-15 22:18:00,
2013-02-15 16:23:00,16.6,4.0,30.24,West,278,7.0,17.0,57,0.00,,CLR,0.00,181.00,VWS V14.01,2013-02-15 22:23:00,
2013-02-15 16:28:00,16.4,3.8,30.24,WNW,295,9.0,17.0,57,0.00,,CLR,0.00,171.00,VWS V14.01,2013-02-15 22:28:00,
2013-02-15 16:33:00,16.4,3.8,30.24,WNW,292,7.0,13.0,57,0.00,,CLR,0.00,156.00,VWS V14.01,2013-02-15 22:33:00,
2013-02-15 16:38:00,16.4,3.8,30.25,WNW,298,10.0,13.0,57,0.00,,CLR,0.00,141.00,VWS V14.01,2013-02-15 22:38:00,
2013-02-15 16:43:00,16.2,3.7,30.25,WNW,283,8.0,13.0,57,0.00,,CLR,0.00,125.00,VWS V14.01,2013-02-15 22:43:00,
2013-02-15 16:49:00,16.2,3.7,30.25,WNW,289,8.0,13.0,57,0.00,,CLR,0.00,107.00,VWS V14.01,2013-02-15 22:49:00,
2013-02-15 16:54:00,16.3,3.8,30.25,NW,317,8.0,13.0,57,0.00,,CLR,0.00,91.00,VWS V14.01,2013-02-15 22:54:00,
2013-02-15 16:59:00,16.1,3.6,30.25,WNW,288,7.0,13.0,57,0.00,,CLR,0.00,77.00,VWS V14.01,2013-02-15 22:59:00,
2013-02-15 17:04:00,15.9,3.8,30.25,NW,313,4.0,8.0,58,0.00,,CLR,0.00,63.00,VWS V14.01,2013-02-15 23:04:00,
2013-02-15 17:09:00,15.8,3.3,30.25,WNW,286,5.0,10.0,57,0.00,,CLR,0.00,53.00,VWS V14.01,2013-02-15 23:09:00,
2013-02-15 17:14:00,15.6,3.5,30.25,NW,318,7.0,10.0,58,0.00,,CLR,0.00,39.00,VWS V14.01,2013-02-15 23:14:00,
2013-02-15 17:19:00,15.2,3.1,30.25,NW,311,5.0,10.0,58,0.00,,CLR,0.00,26.00,VWS V14.01,2013-02-15 23:19:00,
2013-02-15 17:24:00,14.9,3.2,30.25,WNW,291,6.0,10.0,59,0.00,,CLR,0.00,12.00,VWS V14.01,2013-02-15 23:24:00,
2013-02-15 17:29:00,14.5,2.8,30.25,WNW,302,4.0,10.0,59,0.00,,CLR,0.00,7.00,VWS V14.01,2013-02-15 23:29:00,
2013-02-15 17:34:00,14.3,3.0,30.25,WNW,283,4.0,6.0,60,0.00,,CLR,0.00,5.00,VWS V14.01,2013-02-15 23:34:00,
2013-02-15 17:39:00,14.0,2.7,30.25,WNW,294,2.0,7.0,60,0.00,,CLR,0.00,0.00,VWS V14.01,2013-02-15 23:39:00,
2013-02-15 17:44:00,13.8,2.5,30.25,West,274,5.0,7.0,60,0.00,,CLR,0.00,0.00,VWS V14.01,2013-02-15 23:44:00,
2013-02-15 17:49:00,13.5,2.6,30.25,NW,305,1.0,7.0,61,0.00,,CLR,0.00,0.00,VWS V14.01,2013-02-15 23:49:00,
2013-02-15 17:54:00,13.3,2.4,30.26,WNW,282,3.0,7.0,61,0.00,,CLR,0.00,0.00,VWS V14.01,2013-02-15 23:54:00,
2013-02-15 17:59:00,13.1,2.2,30.26,WNW,283,2.0,7.0,61,0.00,,CLR,0.00,0.00,VWS V14.01,2013-02-15 23:59:00,
2013-02-15 18:04:00,12.9,2.0,30.26,WNW,283,2.0,5.0,61,0.00,,CLR,0.00,0.00,VWS V14.01,2013-02-16 00:04:00,
2013-02-15 18:09:00,12.6,2.1,30.26,West,266,4.0,6.0,62,0.00,,CLR,0.00,0.00,VWS V14.01,2013-02-16 00:09:00,
2013-02-15 18:14:00,12.5,2.0,30.26,WNW,292,1.0,6.0,62,0.00,,CLR,0.00,0.00,VWS V14.01,2013-02-16 00:14:00,
2013-02-15 18:19:00,12.3,1.8,30.26,WNW,288,4.0,6.0,62,0.00,,CLR,0.00,0.00,VWS V14.01,2013-02-16 00:19:00,
2013-02-15 18:24:00,12.2,2.0,30.26,WNW,288,2.0,6.0,63,0.00,,CLR,0.00,0.00,VWS V14.01,2013-02-16 00:24:00,
2013-02-15 18:29:00,12.1,1.9,30.26,WNW,288,2.0,6.0,63,0.00,,CLR,0.00,0.00,VWS V14.01,2013-02-16 00:29:00,
2013-02-15 18:34:00,12.0,1.8,30.26,WNW,288,1.0,4.0,63,0.00,,CLR,0.00,0.00,VWS V14.01,2013-02-16 00:34:00,
2013-02-15 18:39:00,12.1,1.9,30.26,WNW,288,1.0,6.0,63,0.00,,CLR,0.00,0.00,VWS V14.01,2013-02-16 00:39:00,
2013-02-15 18:44:00,12.2,2.0,30.26,WNW,288,3.0,6.0,63,0.00,,CLR,0.00,0.00,VWS V14.01,2013-02-16 00:44:00,
2013-02-15 18:49:00,12.2,2.0,30.26,WNW,289,2.0,6.0,63,0.00,,CLR,0.00,0.00,VWS V14.01,2013-02-16 00:49:00,
2013-02-15 18:54:00,12.3,2.1,30.26,WNW,289,2.0,6.0,63,0.00,,CLR,0.00,0.00,VWS V14.01,2013-02-16 00:54:00,
2013-02-15 18:59:00,12.4,2.2,30.26,WNW,289,2.0,3.0,63,0.00,,CLR,0.00,0.00,VWS V14.01,2013-02-16 00:59:00,
2013-02-15 19:04:00,12.5,2.7,30.26,WNW,289,3.0,4.0,64,0.00,,CLR,0.00,0.00,VWS V14.01,2013-02-16 01:04:00,
2013-02-15 19:09:00,12.7,2.8,30.26,WNW,290,2.0,5.0,64,0.00,,CLR,0.00,0.00,VWS V14.01,2013-02-16 01:09:00,
2013-02-15 19:14:00,12.9,2.7,30.26,WNW,290,2.0,5.0,63,0.00,,CLR,0.00,0.00,VWS V14.01,2013-02-16 01:14:00,
2013-02-15 19:19:00,12.9,3.0,30.26,WNW,290,0.0,5.0,64,0.00,,CLR,0.00,0.00,VWS V14.01,2013-02-16 01:19:00,
2013-02-15 19:24:00,12.9,3.0,30.26,WNW,290,3.0,5.0,64,0.00,,CLR,0.00,0.00,VWS V14.01,2013-02-16 01:24:00,
2013-02-15 19:29:00,13.0,3.1,30.26,WNW,290,2.0,2.0,64,0.00,,CLR,0.00,0.00,VWS V14.01,2013-02-16 01:29:00,
2013-02-15 19:34:00,12.9,3.0,30.26,West,279,2.0,7.0,64,0.00,,CLR,0.00,0.00,VWS V14.01,2013-02-16 01:34:00,
2013-02-15 19:39:00,12.8,2.9,30.26,West,272,2.0,7.0,64,0.00,,CLR,0.00,0.00,VWS V14.01,2013-02-16 01:39:00,
2013-02-15 19:44:00,12.7,2.8,30.26,West,260,2.0,7.0,64,0.00,,CLR,0.00,0.00,VWS V14.01,2013-02-16 01:44:00,
2013-02-15 19:49:00,12.5,3.0,30.26,West,264,3.0,7.0,65,0.00,,CLR,0.00,0.00,VWS V14.01,2013-02-16 01:49:00,
2013-02-15 19:54:00,12.4,2.9,30.26,West,265,1.0,7.0,65,0.00,,CLR,0.00,0.00,VWS V14.01,2013-02-16 01:54:00,
2013-02-15 19:59:00,12.2,3.0,30.26,WNW,296,2.0,4.0,66,0.00,,CLR,0.00,0.00,VWS V14.01,2013-02-16 01:59:00,
2013-02-15 20:04:00,12.2,3.0,30.26,West,269,3.0,6.0,66,0.00,,OVC050,0.00,0.00,VWS V14.01,2013-02-16 02:04:00,
2013-02-15 20:09:00,12.3,3.1,30.26,WNW,292,1.0,9.0,66,0.00,,OVC050,0.00,0.00,VWS V14.01,2013-02-16 02:09:00,
2013-02-15 20:14:00,12.3,3.1,30.26,West,275,3.0,9.0,66,0.00,,OVC050,0.00,0.00,VWS V14.01,2013-02-16 02:14:00,
2013-02-15 20:19:00,12.4,3.5,30.25,WNW,284,7.0,9.0,67,0.00,,OVC050,0.00,0.00,VWS V14.01,2013-02-16 02:19:00,
2013-02-15 20:24:00,12.6,3.7,30.25,WNW,300,3.0,9.0,67,0.00,,OVC050,0.00,0.00,VWS V14.01,2013-02-16 02:24:00,
2013-02-15 20:29:00,12.7,3.8,30.25,WNW,291,5.0,6.0,67,0.00,,OVC050,0.00,0.00,VWS V14.01,2013-02-16 02:29:00,
2013-02-15 20:34:00,12.7,3.8,30.25,WNW,286,2.0,7.0,67,0.00,,OVC050,0.00,0.00,VWS V14.01,2013-02-16 02:34:00,
2013-02-15 20:39:00,12.7,3.8,30.25,WNW,298,5.0,7.0,67,0.00,,OVC050,0.00,0.00,VWS V14.01,2013-02-16 02:39:00,
2013-02-15 20:44:00,12.8,3.9,30.26,WNW,300,3.0,7.0,67,0.00,,OVC050,0.00,0.00,VWS V14.01,2013-02-16 02:44:00,
2013-02-15 20:49:00,12.8,4.2,30.25,NW,316,2.0,7.0,68,0.00,,OVC050,0.00,0.00,VWS V14.01,2013-02-16 02:49:00,
2013-02-15 20:54:00,12.8,4.2,30.25,NW,316,2.0,7.0,68,0.00,,OVC050,0.00,0.00,VWS V14.01,2013-02-16 02:54:00,
2013-02-15 20:59:00,12.7,4.2,30.25,NW,315,3.0,3.0,68,0.00,,OVC050,0.00,0.00,VWS V14.01,2013-02-16 02:59:00,
2013-02-15 21:04:00,12.7,4.2,30.25,West,276,2.0,5.0,68,0.00,,OVC050,0.00,0.00,VWS V14.01,2013-02-16 03:04:00,
2013-02-15 21:09:00,12.7,4.2,30.25,West,276,1.0,5.0,68,0.00,,OVC050,0.00,0.00,VWS V14.01,2013-02-16 03:09:00,
2013-02-15 21:14:00,12.7,4.2,30.25,West,276,3.0,5.0,68,0.00,,OVC050,0.00,0.00,VWS V14.01,2013-02-16 03:14:00,
2013-02-15 21:19:00,12.7,4.2,30.25,West,276,1.0,5.0,68,0.00,,OVC050,0.00,0.00,VWS V14.01,2013-02-16 03:19:00,
2013-02-15 21:24:00,12.7,4.2,30.25,WNW,288,1.0,5.0,68,0.00,,OVC050,0.00,0.00,VWS V14.01,2013-02-16 03:24:00,
2013-02-15 21:29:00,12.7,4.2,30.25,WNW,288,2.0,2.0,68,0.00,,OVC050,0.00,0.00,VWS V14.01,2013-02-16 03:29:00,
2013-02-15 21:34:00,12.7,4.2,30.25,WNW,288,1.0,3.0,68,0.00,,OVC050,0.00,0.00,VWS V14.01,2013-02-16 03:34:00,
2013-02-15 21:40:00,12.6,4.1,30.25,WNW,288,1.0,3.0,68,0.00,,OVC050,0.00,0.00,VWS V14.01,2013-02-16 03:40:00,
2013-02-15 21:45:00,12.7,4.2,30.25,WNW,288,1.0,3.0,68,0.00,,OVC050,0.00,0.00,VWS V14.01,2013-02-16 03:45:00,
2013-02-15 21:50:00,12.7,4.2,30.25,West,270,2.0,4.0,68,0.00,,OVC050,0.00,0.00,VWS V14.01,2013-02-16 03:50:00,
2013-02-15 21:55:00,12.8,4.2,30.25,West,270,1.0,4.0,68,0.00,,OVC050,0.00,0.00,VWS V14.01,2013-02-16 03:55:00,
2013-02-15 22:00:00,12.8,4.2,30.24,West,272,3.0,4.0,68,0.00,,OVC048,0.00,0.00,VWS V14.01,2013-02-16 04:00:00,
2013-02-15 22:05:00,12.8,4.2,30.24,West,269,4.0,5.0,68,0.00,,OVC048,0.00,0.00,VWS V14.01,2013-02-16 04:05:00,
2013-02-15 22:10:00,12.8,4.2,30.24,WNW,288,4.0,6.0,68,0.00,,OVC048,0.00,0.00,VWS V14.01,2013-02-16 04:10:00,
2013-02-15 22:15:00,12.8,4.6,30.24,West,278,1.0,6.0,69,0.00,,OVC048,0.00,0.00,VWS V14.01,2013-02-16 04:15:00,
2013-02-15 22:20:00,12.8,4.2,30.24,WNW,288,2.0,6.0,68,0.00,,OVC048,0.00,0.00,VWS V14.01,2013-02-16 04:20:00,
2013-02-15 22:25:00,12.8,4.2,30.24,West,276,2.0,6.0,68,0.00,,OVC048,0.00,0.00,VWS V14.01,2013-02-16 04:25:00,
2013-02-15 22:30:00,12.8,4.2,30.24,West,269,7.0,7.0,68,0.00,,OVC048,0.00,0.00,VWS V14.01,2013-02-16 04:30:00,
2013-02-15 22:35:00,12.8,4.2,30.24,WNW,300,1.0,7.0,68,0.00,,OVC048,0.00,0.00,VWS V14.01,2013-02-16 04:35:00,
2013-02-15 22:40:00,12.8,4.2,30.24,WNW,293,2.0,7.0,68,0.00,,OVC048,0.00,0.00,VWS V14.01,2013-02-16 04:40:00,
2013-02-15 22:45:00,12.8,4.2,30.24,NW,304,5.0,8.0,68,0.00,,OVC048,0.00,0.00,VWS V14.01,2013-02-16 04:45:00,
2013-02-15 22:50:00,12.8,4.2,30.24,WNW,298,3.0,8.0,68,0.00,,OVC048,0.00,0.00,VWS V14.01,2013-02-16 04:50:00,
2013-02-15 22:55:00,12.8,4.2,30.24,WNW,282,3.0,8.0,68,0.00,,OVC048,0.00,0.00,VWS V14.01,2013-02-16 04:55:00,
2013-02-15 23:00:00,12.8,4.2,30.24,WNW,287,6.0,6.0,68,0.00,,OVC046,0.00,0.00,VWS V14.01,2013-02-16 05:00:00,
2013-02-15 23:05:00,12.7,4.5,30.24,NW,305,2.0,7.0,69,0.00,,OVC046,0.00,0.00,VWS V14.01,2013-02-16 05:05:00,
2013-02-15 23:10:00,12.7,4.5,30.24,NW,317,4.0,7.0,69,0.00,,OVC046,0.00,0.00,VWS V14.01,2013-02-16 05:10:00,
2013-02-15 23:15:00,12.7,4.5,30.24,West,278,5.0,9.0,69,0.00,,OVC046,0.00,0.00,VWS V14.01,2013-02-16 05:15:00,
2013-02-15 23:20:00,12.7,4.5,30.24,WNW,299,4.0,9.0,69,0.00,,OVC046,0.00,0.00,VWS V14.01,2013-02-16 05:20:00,
2013-02-15 23:23:00,12.7,4.5,30.24,West,281,4.0,9.0,69,0.00,,OVC046,0.00,0.00,VWS V14.01,2013-02-16 05:23:00,
2013-02-15 23:28:00,12.6,4.4,30.24,WNW,300,3.0,9.0,69,0.00,,OVC046,0.00,0.00,VWS V14.01,2013-02-16 05:28:00,
2013-02-15 23:33:00,12.5,4.3,30.24,West,272,5.0,7.0,69,0.00,,OVC046,0.00,0.00,VWS V14.01,2013-02-16 05:33:00,
2013-02-15 23:38:00,12.5,4.6,30.24,WNW,286,7.0,7.0,70,0.00,,OVC046,0.00,0.00,VWS V14.01,2013-02-16 05:38:00,
2013-02-15 23:43:00,12.4,4.5,30.24,WNW,299,5.0,7.0,70,0.00,,OVC046,0.00,0.00,VWS V14.01,2013-02-16 05:43:00,
2013-02-15 23:48:00,12.3,4.4,30.24,WNW,294,5.0,7.0,70,0.00,,OVC046,0.00,0.00,VWS V14.01,2013-02-16 05:48:00,
2013-02-15 23:53:00,12.2,4.6,30.24,NW,316,5.0,7.0,71,0.00,,OVC046,0.00,0.00,VWS V14.01,2013-02-16 05:53:00,
2013-02-15 23:58:00,12.2,4.6,30.23,NW,315,3.0,7.0,71,0.00,,OVC046,0.00,0.00,VWS V14.01,2013-02-16 05:58:00,